Location: Bijele Vode
(45.2833°N, 16.2000°E)
Time: 08:13:35
(UTC+00:00)

Lacrosse 5 rocket - Pass Details

Date: 20 January 2021
Orbit: 465 x 630 km, 57.0° (Epoch: 04 March)

Event Time Altitude Azimuth Distance (km) Brightness Sun altitude
Exits shadow 03:41:32 19° 41° (NE) 1,267 3.5 -28.9°
Drops below altitude 10° 03:43:29 10° 69° (ENE) 1,712 4.7 -28.5°
Sets 03:46:01 0° 86° (E) 2,566 6.0 -28.1°
